Погода в Литвиненкове

Россия / Республика Крым     45°05′07″N   34°18′38″E
темп.,
°C
ветер,
м/с
пор.,
м/с
влажн.,
%
обл.,
%
осадки,
мм/ч
давл.,
гПа
погр.,
м
18 мая, вт
вт1800:00+11ю22875 0.1 100928
03:00+11ююв34885 0.1 100854
06:00+12ююв478199 0.0 1008130
09:00+18ю575716 0.0 1008982
12:00+20ююз685688 0.5 10071685
15:00+21юз7105398 1.0 10061881
18:00+13зюз6895100 2.2 1007509
21:00+11ююз61390100 4.1 1008477
19 мая, ср
ср1900:00+11ююз61481100 0.0 1008588
03:00+11юз714876 0.1 1008697
06:00+11юз815857 0.0 1008898
09:00+13зюз91373100 0.2 10091241
12:00+12зюз91483100 0.3 10111273
15:00+14зюз8137999 0.4 10111171
18:00+15зюз712702 0.1 10121113
21:00+11ююз4978100 0.1 1014236
20 мая, чт
чт2000:00+11ю476927 0.0 1013100
03:00+11ююв4668100 0.0 101276
06:00+11юв33735 0.0 101247
09:00+18юв234284 0.0 1011532
12:00+22юв2331100 0.0 10101391
15:00+23юв45345 0.0 10091292
18:00+20юв36452 0.0 1008371
21:00+14юв34475 0.0 100947
21 мая, пт
пт2100:00+13ююз334844 0.0 101037
03:00+12юв115243 0.0 100911
06:00+12в116221 0.0 100911
09:00+18с215190 0.0 1010360
12:00+22с3250100 0.0 1009805
15:00+24ссв44487 0.0 10091255
18:00+22св4558100 0.0 1008659
21:00+16всв377899 0.0 1009135
22 мая, сб
сб2200:00+14вюв227893 0.0 100811
03:00+13ссв22780 0.0 100714
06:00+14в228590 0.0 100730
09:00+18ссв358295 0.0 1007337
12:00+22ссв4474100 0.0 1007605
15:00+26с435495 0.0 1007794
18:00+24ссв44615 0.0 1007677
21:00+18в2290100 0.0 100918